Terug naar catalogus

STARLINK-6144

ActiefCommunicatieVLEO
NORAD 56894·PAYLOAD·🇺🇸 United States

Gelanceerd Jun 12, 2023 vanaf Cape Canaveral Space Force Station

Loading…

Volgende Passages (komende 24 uur)

TLE

VersSource: CelesTrak SupGP

Epoch: Sep 14, 2026, 21:38 UTC

1 56894C 23083U   26257.90187500  .00014669  00000+0  53138-3 0  2575
2 56894  43.0016 100.0593 0001366 268.5181 236.5175 15.27566701    13

Volg STARLINK-6144 in realtime met AllMySat

Download on the App Store